TimeEDT,TemperatureF,Dew PointF,Humidity,Sea Level PressureIn,VisibilityMPH,Wind Direction,Wind SpeedMPH,Gust SpeedMPH,PrecipitationIn,Events,Conditions,WindDirDegrees,DateUTC
12:53 AM,64.9,62.1,90,30.15,9.0,Calm,Calm,-,N/A,,Mostly Cloudy,0,2012-10-04 04:53:00
1:53 AM,64.0,61.0,90,30.15,7.0,Calm,Calm,-,N/A,,Overcast,0,2012-10-04 05:53:00
2:53 AM,64.0,62.1,93,30.14,6.0,Calm,Calm,-,N/A,,Overcast,0,2012-10-04 06:53:00
3:28 AM,64.4,62.6,94,30.17,6.0,Calm,Calm,-,N/A,,Overcast,0,2012-10-04 07:28:00
3:53 AM,64.0,62.1,93,30.16,5.0,Calm,Calm,-,N/A,,Overcast,0,2012-10-04 07:53:00
4:53 AM,64.0,61.0,90,30.15,4.0,Calm,Calm,-,N/A,,Clear,0,2012-10-04 08:53:00
5:53 AM,63.0,61.0,93,30.14,4.0,Calm,Calm,-,N/A,,Scattered Clouds,0,2012-10-04 09:53:00
6:53 AM,63.0,62.1,97,30.17,4.0,SSE,4.6,-,N/A,,Overcast,160,2012-10-04 10:53:00
7:46 AM,62.6,60.8,94,30.19,2.5,WNW,4.6,-,N/A,,Mostly Cloudy,300,2012-10-04 11:46:00
7:53 AM,63.0,61.0,93,30.18,2.0,West,5.8,-,N/A,,Mostly Cloudy,280,2012-10-04 11:53:00
8:28 AM,62.6,60.8,94,30.20,4.0,West,4.6,-,N/A,,Overcast,260,2012-10-04 12:28:00
8:53 AM,64.9,61.0,87,30.18,6.0,Calm,Calm,-,N/A,,Overcast,0,2012-10-04 12:53:00
9:53 AM,66.0,61.0,84,30.18,7.0,Calm,Calm,-,N/A,,Partly Cloudy,0,2012-10-04 13:53:00
11:53 AM,69.1,57.9,68,30.18,10.0,Variable,5.8,-,N/A,,Partly Cloudy,0,2012-10-04 15:53:00
12:53 PM,70.0,55.0,59,30.17,10.0,West,8.1,-,N/A,,Scattered Clouds,270,2012-10-04 16:53:00
1:53 PM,70.0,54.0,57,30.15,10.0,WNW,6.9,-,N/A,,Mostly Cloudy,290,2012-10-04 17:53:00
2:53 PM,73.0,53.1,49,30.14,10.0,West,11.5,-,N/A,,Scattered Clouds,280,2012-10-04 18:53:00
3:53 PM,73.0,52.0,48,30.14,10.0,West,13.8,18.4,N/A,,Partly Cloudy,270,2012-10-04 19:53:00
4:53 PM,72.0,52.0,49,30.14,10.0,WNW,10.4,17.3,N/A,,Clear,300,2012-10-04 20:53:00
5:53 PM,70.0,50.0,49,30.14,10.0,West,10.4,-,N/A,,Clear,270,2012-10-04 21:53:00
6:53 PM,64.0,51.1,63,30.15,10.0,West,6.9,-,N/A,,Clear,260,2012-10-04 22:53:00
7:53 PM,62.1,50.0,65,30.15,10.0,West,4.6,-,N/A,,Clear,260,2012-10-04 23:53:00
8:53 PM,63.0,50.0,63,30.15,10.0,Calm,Calm,-,N/A,,Clear,0,2012-10-05 00:53:00
9:53 PM,57.9,51.1,78,30.15,10.0,SSE,3.5,-,N/A,,Clear,150,2012-10-05 01:53:00
10:53 PM,59.0,50.0,72,30.15,10.0,SSW,6.9,-,N/A,,Clear,200,2012-10-05 02:53:00
11:53 PM,57.9,50.0,75,30.15,10.0,SSW,5.8,-,N/A,,Clear,210,2012-10-05 03:53:00